TAP5RP LFPO-LPPR

Flight info

Callsign TAP5RP
Flight time N/A
Altitude 37000
Route LGL UT176 KURIS UN872 ERIGA DCT FUJTI DCT ATLEN DCT INSID T326 ASPOR
Aircraft A320/M-SDE3FGHIRWY/LB1

Departure

Time 2026-04-30 14:58
Airport Paris-Orly Airport (LFPO)

Arrival

Time N/A
Airport Francisco de Sá Carneiro Airport (LPPR)
Time Latitude Longitude Altitude Speed Heading
2026-04-30 14:13 48.72724 2.35712 285 ft 0 kts 147°
2026-04-30 14:43 48.72734 2.35703 291 ft 4 kts 144°
2026-04-30 14:43 48.72754 2.35677 288 ft 4 kts 133°
2026-04-30 14:44 48.72771 2.35645 291 ft 4 kts 121°
2026-04-30 14:44 48.72781 2.35617 293 ft 4 kts 119°
2026-04-30 14:44 48.72797 2.35587 293 ft 4 kts 150°
2026-04-30 14:44 48.72818 2.35574 293 ft 4 kts 164°
2026-04-30 14:45 48.72831 2.35569 290 ft 0 kts 164°
2026-04-30 14:49 48.72814 2.35576 293 ft 4 kts 164°
2026-04-30 14:49 48.72778 2.35579 293 ft 6 kts 202°
2026-04-30 14:49 48.72748 2.35526 288 ft 7 kts 253°
2026-04-30 14:49 48.72716 2.35499 290 ft 5 kts 182°
2026-04-30 14:50 48.72673 2.35513 291 ft 3 kts 167°
2026-04-30 14:50 48.72634 2.35528 290 ft 8 kts 164°
2026-04-30 14:51 48.72540 2.35571 292 ft 0 kts 165°
2026-04-30 14:51 48.72516 2.35581 288 ft 7 kts 165°
2026-04-30 14:51 48.72442 2.35608 291 ft 12 kts 166°
2026-04-30 14:52 48.72381 2.35645 292 ft 13 kts 169°
2026-04-30 14:52 48.72246 2.35599 288 ft 2 kts 191°
2026-04-30 14:52 48.72235 2.35598 289 ft 1 kts 178°
2026-04-30 14:53 48.72170 2.35626 289 ft 8 kts 165°
2026-04-30 14:53 48.72114 2.35649 289 ft 9 kts 162°
2026-04-30 14:54 48.72051 2.35707 292 ft 6 kts 138°
2026-04-30 14:54 48.71991 2.35842 290 ft 10 kts 119°
2026-04-30 14:55 48.71960 2.35958 292 ft 0 kts 73°
2026-04-30 14:55 48.71960 2.35959 291 ft 1 kts 73°
2026-04-30 14:55 48.71962 2.35969 290 ft 0 kts 73°
2026-04-30 14:56 48.71963 2.35975 289 ft 7 kts 73°
2026-04-30 14:57 48.72048 2.36437 294 ft 80 kts 74°
2026-04-30 14:57 48.72530 2.39092 574 ft 158 kts 76°
2026-04-30 14:58 48.73133 2.42318 1955 ft 161 kts 76°
2026-04-30 14:58 48.73437 2.43953 2739 ft 161 kts 77°
2026-04-30 14:58 48.74016 2.47302 3786 ft 181 kts 85°
2026-04-30 14:59 48.74100 2.51644 4369 ft 232 kts 89°
2026-04-30 15:00 48.73160 2.59137 6321 ft 259 kts 143°
2026-04-30 15:00 48.69716 2.59377 7976 ft 272 kts 210°
2026-04-30 15:01 48.68025 2.54223 9491 ft 296 kts 268°
2026-04-30 15:01 48.68118 2.52163 10086 ft 297 kts 273°
2026-04-30 15:01 48.68592 2.44405 11013 ft 338 kts 272°
2026-04-30 15:02 48.68802 2.40799 11567 ft 348 kts 272°
2026-04-30 15:02 48.69023 2.37126 12249 ft 353 kts 273°
2026-04-30 15:03 48.69724 2.25812 14340 ft 366 kts 274°
2026-04-30 15:03 48.70202 2.18051 15561 ft 374 kts 274°
2026-04-30 15:04 48.70683 2.10121 16789 ft 382 kts 274°
2026-04-30 15:04 48.71413 1.97958 18620 ft 392 kts 274°
2026-04-30 15:05 48.72141 1.85522 20150 ft 403 kts 273°
2026-04-30 15:06 48.72631 1.76995 21177 ft 410 kts 273°
2026-04-30 15:06 48.73125 1.68305 22178 ft 418 kts 272°
2026-04-30 15:07 48.73539 1.60957 23014 ft 424 kts 272°
2026-04-30 15:07 48.74040 1.51971 23939 ft 432 kts 272°
2026-04-30 15:08 48.74541 1.42856 24789 ft 436 kts 272°
2026-04-30 15:08 48.75286 1.29026 26040 ft 442 kts 272°
2026-04-30 15:09 48.75773 1.19726 26867 ft 444 kts 272°
2026-04-30 15:09 48.76260 1.10375 27663 ft 447 kts 272°
2026-04-30 15:10 48.76738 1.00953 28413 ft 450 kts 272°
2026-04-30 15:11 48.77683 0.81924 29937 ft 453 kts 272°
2026-04-30 15:11 48.78147 0.72386 30552 ft 455 kts 272°
2026-04-30 15:12 48.78303 0.58008 31314 ft 455 kts 258°
2026-04-30 15:13 48.76268 0.49071 31866 ft 450 kts 239°
2026-04-30 15:14 48.68600 0.34398 33210 ft 442 kts 228°
2026-04-30 15:14 48.62626 0.23814 34176 ft 440 kts 227°
2026-04-30 15:16 48.52709 0.06286 35404 ft 438 kts 228°
2026-04-30 15:17 48.44823 -0.07710 36319 ft 437 kts 227°